Retour au catalogue

SL-8 DEB

ActifLEO
NORAD 18697·DEBRIS·🇷🇺 Russia

Lancé Dec 1, 1987 depuis Plesetsk Cosmodrome

Loading…

Prochains Passages (prochaines 24 heures)

TLE

FraisSource: Space-Track

Époque: Sep 14, 2026, 09:10 UTC

1 18697U 87098C   26257.38206476  .00001133  00000-0  22205-3 0  9993
2 18697  73.9940 127.8634 0005332 349.6100 185.4878 14.63992991 46163

Suivez SL-8 DEB en temps réel avec AllMySat

Download on the App Store